Weather History for Superior, WI

Change the Weather History Date:

Friday, September 21, 2012

  Actual Average Record
Temperature  
Mean Temperature 48 °F -  
Max Temperature 60 °F 62 °F 78 °F (2007)
Min Temperature 37 °F 44 °F 26 °F (1956)
Degree Days  
Heating Degree Days 16    
Moisture  
Dew Point 39 °F    
Average Humidity 72    
Maximum Humidity 100    
Minimum Humidity 31    
Precipitation  
Precipitation 0.06 in - - ()
Sea Level Pressure  
Sea Level Pressure 29.78 in    
Wind  
Wind Speed 6 mph (WNW)    
Max Wind Speed 17 mph    
Max Gust Speed 30 mph    
Visibility 10 miles    
Events Rain    
Averages and records for this station are not official NWS values.
T = Trace of Precipitation, MM = Missing Value Source: NWS Daily Summary

Daily Weather History Graph

Daily Weather History Graph

Search for Another Location

Airport:

Trip Planner

Search our weather history database for the weather conditions in past years. The results will help you decide how hot, cold, wet, or windy it might be!

Date:

Astronomy

Sep. 21, 2012 Rise Set
Actual Time 6:54 AM CDT 7:07 PM CDT
Civil Twilight 6:24 AM CDT 7:37 PM CDT
Nautical Twilight 5:48 AM CDT 8:12 PM CDT
Astronomical Twilight 5:12 AM CDT 8:49 PM CDT
Moon 1:39 PM CDT (9/21) 10:45 PM CDT (9/21)
Length of Visible Light 13h 12m
Length of Day
12h 12m
Waxing Crescent, 37% of the Moon is Illuminated
Sep 21
Waxing Crescent
Sep 22
First Quarter
Sep 29
Full
Oct 8
Last Quarter
Oct 15
New

Hourly Weather History & Observations

Time (CDT) Temp. Windchill Dew Point Humidity Pressure Visibility Wind Dir Wind Speed Gust Speed Precip Events Conditions
12:15 AM 46.4 °F 44.3 °F 42.8 °F 87% 29.80 in 10.0 mi SW 4.6 mph - N/A   Mostly Cloudy
12:35 AM 46.4 °F 42.9 °F 42.8 °F 87% 29.80 in 10.0 mi SW 6.9 mph - N/A   Overcast
12:55 AM 46.4 °F 43.5 °F 42.8 °F 87% 29.79 in 10.0 mi SW 5.8 mph - N/A   Mostly Cloudy
1:15 AM 46.4 °F 43.5 °F 42.8 °F 87% 29.79 in 10.0 mi WSW 5.8 mph - N/A   Mostly Cloudy
1:35 AM 46.4 °F 43.5 °F 42.8 °F 87% 29.79 in 10.0 mi WSW 5.8 mph - N/A Rain Light Rain
1:55 AM 46.4 °F 43.5 °F 44.6 °F 93% 29.78 in 10.0 mi WSW 5.8 mph - N/A   Overcast
2:15 AM 46.4 °F 42.9 °F 44.6 °F 93% 29.79 in 10.0 mi SW 6.9 mph - N/A   Overcast
2:35 AM 46.4 °F 42.4 °F 44.6 °F 93% 29.79 in 10.0 mi WSW 8.1 mph - N/A   Overcast
2:55 AM 46.4 °F 42.9 °F 42.8 °F 87% 29.79 in 10.0 mi West 6.9 mph - N/A   Mostly Cloudy
3:15 AM 46.4 °F 42.9 °F 42.8 °F 87% 29.79 in 10.0 mi West 6.9 mph - N/A   Clear
3:35 AM 44.6 °F 40.7 °F 42.8 °F 93% 29.79 in 10.0 mi West 6.9 mph - N/A   Clear
3:55 AM 44.6 °F 39.7 °F 42.8 °F 93% 29.79 in 10.0 mi WNW 9.2 mph - N/A   Clear
4:15 AM 44.6 °F 39.7 °F 41.0 °F 87% 29.79 in 10.0 mi WNW 9.2 mph - N/A   Clear
4:35 AM 42.8 °F 38.0 °F 39.2 °F 87% 29.79 in 10.0 mi WNW 8.1 mph - N/A   Clear
4:55 AM 42.8 °F 39.3 °F 39.2 °F 87% 29.78 in 10.0 mi WNW 5.8 mph - N/A   Clear
5:15 AM 39.2 °F - 37.4 °F 93% 29.79 in 10.0 mi Calm Calm - N/A   Clear
5:35 AM 39.2 °F - 37.4 °F 93% 29.79 in 7.0 mi Calm Calm - N/A   Clear
5:55 AM 37.4 °F - 35.6 °F 93% 29.79 in 1.8 mi Calm Calm - N/A   Mist
6:15 AM 39.2 °F - 37.4 °F 93% 29.80 in 10.0 mi Calm Calm - N/A   Scattered Clouds
6:35 AM 37.4 °F 33.8 °F 35.6 °F 93% 29.80 in 10.0 mi South 4.6 mph - N/A   Scattered Clouds
6:55 AM 37.4 °F 33.8 °F 37.4 °F 100% 29.81 in 10.0 mi SSW 4.6 mph - N/A   Scattered Clouds
7:35 AM 39.2 °F 35.9 °F 37.4 °F 93% 29.81 in 10.0 mi SSW 4.6 mph - N/A   Clear
7:55 AM 42.8 °F 41.1 °F 39.2 °F 87% 29.81 in 10.0 mi South 3.5 mph - N/A   Clear
8:15 AM 44.6 °F 42.2 °F 41.0 °F 87% 29.80 in 10.0 mi South 4.6 mph - N/A   Clear
8:35 AM 44.6 °F - 41.0 °F 87% 29.81 in 10.0 mi Calm Calm - N/A   Clear
8:55 AM 46.4 °F - 41.0 °F 81% 29.81 in 10.0 mi Calm Calm - N/A   Clear
9:15 AM 48.2 °F - 42.8 °F 82% 29.81 in 10.0 mi West 4.6 mph - N/A   Clear
9:35 AM 48.2 °F - 41.0 °F 76% 29.81 in 10.0 mi West 5.8 mph - N/A   Clear
9:55 AM 50.0 °F - 42.8 °F 76% 29.81 in 10.0 mi West 4.6 mph - N/A   Clear
10:15 AM 51.8 °F - 42.8 °F 71% 29.81 in 10.0 mi West 6.9 mph - N/A   Clear
10:35 AM 53.6 °F - 42.8 °F 67% 29.80 in 10.0 mi SW 4.6 mph - N/A   Clear
10:55 AM 53.6 °F - 39.2 °F 58% 29.80 in 10.0 mi West 8.1 mph - N/A   Scattered Clouds
11:15 AM 55.4 °F - 39.2 °F 54% 29.80 in 10.0 mi West 8.1 mph - N/A   Scattered Clouds
11:35 AM 55.4 °F - 39.2 °F 54% 29.80 in 10.0 mi NW 6.9 mph - N/A   Scattered Clouds
11:55 AM 53.6 °F - 37.4 °F 54% 29.79 in 10.0 mi NW 6.9 mph - N/A   Mostly Cloudy
12:15 PM 55.4 °F - 35.6 °F 47% 29.79 in 10.0 mi WNW 9.2 mph - N/A   Scattered Clouds
12:35 PM 55.4 °F - 35.6 °F 47% 29.78 in 10.0 mi NNW 6.9 mph - N/A   Mostly Cloudy
12:55 PM 57.2 °F - 35.6 °F 44% 29.78 in 10.0 mi NNW 3.5 mph - N/A   Mostly Cloudy
1:15 PM 55.4 °F - 35.6 °F 47% 29.78 in 10.0 mi North 4.6 mph - N/A Rain Light Rain
1:35 PM 51.8 °F - 39.2 °F 62% 29.78 in 10.0 mi NNW 4.6 mph - N/A Rain Light Rain
1:55 PM 57.2 °F - 37.4 °F 48% 29.77 in 10.0 mi NW 8.1 mph - N/A   Clear
2:15 PM 59.0 °F - 35.6 °F 42% 29.76 in 10.0 mi WNW 9.2 mph - N/A   Clear
2:35 PM 60.8 °F - 33.8 °F 36% 29.75 in 10.0 mi WNW 8.1 mph - N/A   Clear
2:55 PM 57.2 °F - 32.0 °F 38% 29.75 in 10.0 mi West 6.9 mph - N/A   Scattered Clouds
3:15 PM 60.8 °F - 32.0 °F 34% 29.74 in 10.0 mi WNW 13.8 mph - N/A   Scattered Clouds
3:35 PM 55.4 °F - 32.0 °F 41% 29.74 in 10.0 mi NW 8.1 mph 17.3 mph N/A   Clear
3:55 PM 59.0 °F - 33.8 °F 39% 29.73 in 10.0 mi WNW 9.2 mph - N/A   Mostly Cloudy
4:15 PM 60.8 °F - 30.2 °F 31% 29.73 in 10.0 mi West 13.8 mph 18.4 mph N/A   Mostly Cloudy
4:35 PM 57.2 °F - 30.2 °F 36% 29.73 in 10.0 mi West 12.7 mph 17.3 mph N/A   Mostly Cloudy
4:55 PM 51.8 °F - 39.2 °F 62% 29.74 in 10.0 mi NNW 13.8 mph 29.9 mph N/A Rain Light Rain
5:15 PM 53.6 °F - 39.2 °F 58% 29.74 in 10.0 mi NNW 6.9 mph - N/A   Scattered Clouds
5:35 PM 55.4 °F - 37.4 °F 51% 29.74 in 10.0 mi NW 9.2 mph - N/A   Scattered Clouds
5:55 PM 55.4 °F - 37.4 °F 51% 29.73 in 10.0 mi NW 6.9 mph - N/A   Clear
6:15 PM 53.6 °F - 37.4 °F 54% 29.73 in 10.0 mi NW 4.6 mph - N/A   Clear
6:35 PM 53.6 °F - 37.4 °F 54% 29.73 in 10.0 mi Calm Calm - N/A   Scattered Clouds
6:55 PM 48.2 °F - 37.4 °F 66% 29.73 in 10.0 mi Calm Calm - N/A   Scattered Clouds
7:15 PM 46.4 °F 45.2 °F 37.4 °F 71% 29.72 in 10.0 mi SSW 3.5 mph - N/A   Scattered Clouds
7:35 PM 46.4 °F - 39.2 °F 76% 29.72 in 10.0 mi Calm Calm - N/A   Overcast
7:55 PM 48.2 °F - 39.2 °F 71% 29.76 in 10.0 mi NNW 15.0 mph 27.6 mph N/A   Drizzle
8:15 PM 48.2 °F - 39.2 °F 71% 29.76 in 10.0 mi NW 12.7 mph 18.4 mph N/A   Overcast
8:35 PM 46.4 °F 39.5 °F 42.8 °F 87% 29.77 in 10.0 mi WNW 17.3 mph 21.9 mph 0.02 in Rain Light Rain
8:55 PM 44.6 °F 38.8 °F 41.0 °F 87% 29.77 in 7.0 mi NW 11.5 mph 16.1 mph 0.05 in Rain Rain
9:15 PM 42.8 °F 37.5 °F 37.4 °F 81% 29.78 in 10.0 mi WNW 9.2 mph - N/A   Overcast
9:35 PM 42.8 °F 36.6 °F 37.4 °F 81% 29.79 in 10.0 mi WNW 11.5 mph - N/A   Overcast
9:55 PM 42.8 °F 37.5 °F 37.4 °F 81% 29.79 in 10.0 mi WNW 9.2 mph - N/A Rain Light Rain
10:15 PM 42.8 °F 36.2 °F 37.4 °F 81% 29.79 in 10.0 mi NNW 12.7 mph - 0.01 in Rain Light Rain
10:35 PM 41.0 °F 34.7 °F 37.4 °F 87% 29.79 in 10.0 mi NW 10.4 mph 16.1 mph 0.01 in Rain Rain
10:55 PM 41.0 °F 34.7 °F 37.4 °F 87% 29.79 in 10.0 mi NW 10.4 mph - 0.01 in Rain Rain
11:15 PM 39.2 °F 32.0 °F 35.6 °F 87% 29.80 in 10.0 mi NW 11.5 mph 17.3 mph N/A   Light Drizzle
11:35 PM 39.2 °F 33.0 °F 35.6 °F 87% 29.80 in 10.0 mi NW 9.2 mph - N/A   Light Drizzle
11:55 PM 37.4 °F 30.3 °F 33.8 °F 87% 29.81 in 10.0 mi NW 10.4 mph 13.8 mph N/A   Light Drizzle